{"data":{"norad_id":42767,"intl_designator":"2017-036C","name":"CARTOSAT-2E","alt_names":[],"object_type":"PAYLOAD","status":"ACTIVE","operator":null,"country":"IND","launch_date":"2017-06-23","launch_site_code":"SRILR","launch_vehicle":null,"mission":null,"orbit_class":"UNKNOWN","rcs_meters":null,"size_class":null,"mass_kg":null,"dimensions":null,"purposes":["earth_obs"],"wikipedia_slug":null,"has_3d_model":false,"image_url":null,"decayed_at":null,"tle_current":{"epoch":"2026-09-20T03:38:08.119968Z","epoch_age_seconds":52128,"freshness":"FRESH","line1":"1 42767U 17036C   26263.15148287  .00001673  00000+0  82494-4 0  9995","line2":"2 42767  97.4180 321.3337 0002936   6.4121 353.7150 15.19299541512562","mean_motion":15.19299541,"eccentricity":0.0002936,"inclination_deg":97.418,"raan_deg":321.3337,"arg_perigee_deg":6.4121,"mean_anomaly_deg":353.715,"bstar":8.2494e-5,"rev_number":51256,"period_min":94.780519650009,"perigee_km":505.93455699694,"apogee_km":509.97807099092,"semimajor_km":6886.0933139939,"source":"CELESTRAK","updated_at":"2026-09-20T09:00:33.969974Z"}}}